TimeCDT,TemperatureF,Dew PointF,Humidity,Sea Level PressureIn,VisibilityMPH,Wind Direction,Wind SpeedMPH,Gust SpeedMPH,PrecipitationIn,Events,Conditions,WindDirDegrees,DateUTC
12:15 AM,62.8,46.4,55,29.59,10.0,WNW,18.4,27.6,N/A,,Clear,290,2013-05-15 05:15:00
12:35 AM,62.2,46.8,57,29.61,10.0,WNW,16.1,26.5,N/A,,Clear,300,2013-05-15 05:35:00
12:55 AM,60.8,47.3,61,29.62,10.0,WNW,17.3,20.7,N/A,,Clear,300,2013-05-15 05:55:00
1:15 AM,60.1,47.3,63,29.64,10.0,NW,15.0,25.3,N/A,,Clear,310,2013-05-15 06:15:00
1:35 AM,58.8,46.6,64,29.66,10.0,NW,19.6,25.3,N/A,,Clear,320,2013-05-15 06:35:00
1:55 AM,57.9,46.0,65,29.68,10.0,NW,13.8,19.6,N/A,,Clear,320,2013-05-15 06:55:00
2:15 AM,57.0,45.5,65,29.69,10.0,NW,12.7,18.4,N/A,,Clear,320,2013-05-15 07:15:00
2:35 AM,55.2,44.4,67,29.70,10.0,NW,9.2,-,N/A,,Clear,310,2013-05-15 07:35:00
2:55 AM,55.4,44.1,66,29.71,10.0,NW,12.7,-,N/A,,Clear,310,2013-05-15 07:55:00
3:15 AM,55.4,43.9,65,29.72,10.0,WNW,11.5,-,N/A,,Clear,300,2013-05-15 08:15:00
3:35 AM,54.0,43.5,68,29.74,10.0,WNW,10.4,-,N/A,,Clear,290,2013-05-15 08:35:00
3:55 AM,55.4,43.9,65,29.74,10.0,WNW,10.4,21.9,N/A,,Clear,300,2013-05-15 08:55:00
4:15 AM,54.0,43.3,67,29.74,10.0,WNW,9.2,-,N/A,,Clear,300,2013-05-15 09:15:00
4:35 AM,52.9,43.3,70,29.75,10.0,West,8.1,-,N/A,,Clear,280,2013-05-15 09:35:00
4:55 AM,52.2,43.3,72,29.75,10.0,WNW,11.5,-,N/A,,Clear,290,2013-05-15 09:55:00
5:15 AM,52.3,43.2,71,29.76,10.0,West,9.2,-,N/A,,Clear,280,2013-05-15 10:15:00
5:35 AM,52.5,43.0,70,29.76,10.0,WNW,8.1,-,N/A,,Clear,300,2013-05-15 10:35:00
5:55 AM,53.2,43.0,68,29.77,10.0,WNW,11.5,16.1,N/A,,Clear,300,2013-05-15 10:55:00
6:15 AM,54.3,43.0,66,29.77,10.0,WNW,8.1,18.4,N/A,,Clear,290,2013-05-15 11:15:00
6:35 AM,55.4,43.2,63,29.78,10.0,WNW,12.7,20.7,N/A,,Clear,300,2013-05-15 11:35:00
6:55 AM,55.4,43.7,65,29.79,10.0,West,9.2,-,N/A,,Clear,270,2013-05-15 11:55:00
7:15 AM,56.3,43.9,63,29.80,10.0,West,10.4,17.3,N/A,,Clear,270,2013-05-15 12:15:00
7:35 AM,56.5,44.1,63,29.82,10.0,West,10.4,-,N/A,,Clear,260,2013-05-15 12:35:00
7:55 AM,57.7,44.6,62,29.84,10.0,West,11.5,-,N/A,,Clear,260,2013-05-15 12:55:00
8:15 AM,59.2,44.8,59,29.84,10.0,West,10.4,-,N/A,,Clear,280,2013-05-15 13:15:00
8:35 AM,61.3,45.0,55,29.83,10.0,West,10.4,-,N/A,,Clear,280,2013-05-15 13:35:00
8:55 AM,63.7,45.0,51,29.84,10.0,WSW,11.5,17.3,N/A,,Clear,250,2013-05-15 13:55:00
9:15 AM,64.6,45.0,49,29.84,10.0,West,10.4,-,N/A,,Clear,260,2013-05-15 14:15:00
9:35 AM,66.9,44.6,45,29.84,10.0,WNW,12.7,-,N/A,,Clear,290,2013-05-15 14:35:00
10:15 AM,69.3,43.2,39,29.83,10.0,NW,10.4,16.1,N/A,,Clear,310,2013-05-15 15:15:00
10:35 AM,70.9,41.9,35,29.82,10.0,West,8.1,-,N/A,,Clear,280,2013-05-15 15:35:00
10:55 AM,72.3,41.4,33,29.82,10.0,WNW,17.3,21.9,N/A,,Clear,290,2013-05-15 15:55:00
11:15 AM,73.8,41.9,32,29.82,10.0,NW,13.8,19.6,N/A,,Clear,310,2013-05-15 16:15:00
11:35 AM,74.1,42.4,32,29.81,10.0,West,13.8,21.9,N/A,,Scattered Clouds,280,2013-05-15 16:35:00
11:55 AM,75.0,42.6,31,29.81,10.0,NW,15.0,20.7,N/A,,Scattered Clouds,320,2013-05-15 16:55:00
12:15 PM,75.9,41.5,29,29.80,10.0,West,17.3,24.2,N/A,,Scattered Clouds,280,2013-05-15 17:15:00
12:35 PM,75.7,41.4,29,29.80,10.0,West,19.6,25.3,N/A,,Scattered Clouds,280,2013-05-15 17:35:00
12:55 PM,74.1,40.6,30,29.79,10.0,NW,16.1,27.6,N/A,,Mostly Cloudy,310,2013-05-15 17:55:00
1:15 PM,75.4,39.0,27,29.79,10.0,NW,16.1,20.7,N/A,,Mostly Cloudy,310,2013-05-15 18:15:00
1:35 PM,77.5,38.1,24,29.78,10.0,West,17.3,23.0,N/A,,Scattered Clouds,280,2013-05-15 18:35:00
1:55 PM,77.7,37.8,24,29.78,10.0,WNW,17.3,24.2,N/A,,Scattered Clouds,290,2013-05-15 18:55:00
2:15 PM,79.2,35.8,21,29.77,10.0,WNW,16.1,27.6,N/A,,Mostly Cloudy,300,2013-05-15 19:15:00
2:35 PM,79.9,35.4,20,29.77,10.0,WNW,15.0,21.9,N/A,,Scattered Clouds,300,2013-05-15 19:35:00
2:55 PM,79.5,35.6,21,29.77,10.0,NW,17.3,24.2,N/A,,Scattered Clouds,310,2013-05-15 19:55:00
3:15 PM,79.0,36.7,22,29.76,10.0,NW,16.1,20.7,N/A,,Mostly Cloudy,310,2013-05-15 20:15:00
3:35 PM,80.6,34.9,19,29.75,10.0,West,12.7,27.6,N/A,,Mostly Cloudy,280,2013-05-15 20:35:00
3:55 PM,79.2,34.7,20,29.76,10.0,WNW,17.3,25.3,N/A,,Mostly Cloudy,300,2013-05-15 20:55:00
4:15 PM,80.1,34.9,20,29.75,10.0,NW,19.6,23.0,N/A,,Mostly Cloudy,320,2013-05-15 21:15:00
4:35 PM,79.3,34.0,19,29.75,10.0,NW,20.7,26.5,N/A,,Mostly Cloudy,310,2013-05-15 21:35:00
4:55 PM,80.2,35.1,20,29.75,10.0,NW,13.8,20.7,N/A,,Scattered Clouds,310,2013-05-15 21:55:00
5:15 PM,80.4,34.3,19,29.75,10.0,NW,12.7,24.2,N/A,,Mostly Cloudy,310,2013-05-15 22:15:00
5:35 PM,79.9,33.8,19,29.75,10.0,WNW,19.6,24.2,N/A,,Mostly Cloudy,290,2013-05-15 22:35:00
5:55 PM,79.0,34.9,20,29.75,10.0,NW,15.0,18.4,N/A,,Mostly Cloudy,320,2013-05-15 22:55:00
6:15 PM,76.3,34.9,22,29.75,10.0,NW,9.2,-,N/A,,Scattered Clouds,310,2013-05-15 23:15:00
6:35 PM,74.1,35.1,24,29.75,10.0,NNW,12.7,-,N/A,,Scattered Clouds,340,2013-05-15 23:35:00
6:55 PM,74.8,34.5,23,29.76,10.0,North,8.1,-,N/A,,Mostly Cloudy,360,2013-05-15 23:55:00
7:15 PM,75.0,35.4,24,29.76,10.0,North,10.4,16.1,N/A,,Mostly Cloudy,360,2013-05-16 00:15:00
7:35 PM,73.4,35.2,25,29.77,10.0,North,11.5,18.4,N/A,,Mostly Cloudy,350,2013-05-16 00:35:00
7:55 PM,72.1,35.6,26,29.77,10.0,NNE,5.8,-,N/A,,Scattered Clouds,20,2013-05-16 00:55:00
8:15 PM,68.5,39.2,34,29.78,10.0,NE,5.8,-,N/A,,Scattered Clouds,50,2013-05-16 01:15:00
8:35 PM,63.0,39.4,42,29.78,10.0,East,5.8,-,N/A,,Scattered Clouds,100,2013-05-16 01:35:00
8:55 PM,61.5,37.9,42,29.79,10.0,ESE,3.5,-,N/A,,Mostly Cloudy,120,2013-05-16 01:55:00
9:15 PM,60.1,38.3,44,29.79,10.0,SSE,3.5,-,N/A,,Scattered Clouds,150,2013-05-16 02:15:00
9:35 PM,57.9,38.3,48,29.79,10.0,South,4.6,-,N/A,,Mostly Cloudy,170,2013-05-16 02:35:00
9:55 PM,58.3,38.5,48,29.79,10.0,SSE,3.5,-,N/A,,Scattered Clouds,150,2013-05-16 02:55:00
10:15 PM,58.1,39.4,50,29.80,10.0,Calm,Calm,-,N/A,,Mostly Cloudy,0,2013-05-16 03:15:00
10:35 PM,56.5,40.3,55,29.80,10.0,Calm,Calm,-,N/A,,Mostly Cloudy,0,2013-05-16 03:35:00
10:55 PM,57.4,41.5,56,29.80,10.0,Calm,Calm,-,N/A,,Scattered Clouds,0,2013-05-16 03:55:00
11:15 PM,54.9,39.7,57,29.81,10.0,Calm,Calm,-,N/A,,Clear,0,2013-05-16 04:15:00
11:35 PM,52.2,40.1,64,29.81,10.0,Calm,Calm,-,N/A,,Scattered Clouds,0,2013-05-16 04:35:00
11:55 PM,51.8,42.3,70,29.82,10.0,Calm,Calm,-,N/A,,Mostly Cloudy,0,2013-05-16 04:55:00